Skip Page Navigation
NASA JPL Caltech
NASA Logo - Jet Propulsion Laboratory + View the NASA Portal
+ Near-Earth Object (NEO) Program
Search JPL
JPL Home Earth Solar System Stars & Galaxies Technology
JPL Solar System Dynamics
BODIES ORBITS EPHEMERIDES TOOLS PHYSICAL DATA DISCOVERY FAQ SITE MAP
JPL Small-Body Database Browser
Search: [ help ]  
(1998 SH2)
Classification: Apollo [NEO, PHA]          SPK-ID: 3014109
Ephemeris | Orbit Diagram | Orbital Elements | Physical Parameters | Close-Approach Data ]

[ hide orbit diagram ]
Orbit Diagram
Note: Make sure you have Java enabled on your browser to see the applet. This applet is provided as a 3D orbit visualization tool. The applet was implemented using 2-body methods, and hence should not be used for determining accurate long-term trajectories (over several years or decades) or planetary encounter circumstances. For accurate long-term ephemerides, please instead use our Horizons system.
Orbit Viewer

Additional Notes: the orbits shown in the applet are color coded. The planets are white lines, and the asteroid/comet is a blue line. The bright white line indicates the portion of the orbit that is above the ecliptic plane, and the darker portion is below the ecliptic plane. Likewise for the asteroid/comet orbit, the light blue indicates the portion above the ecliptic plane, and the dark blue the portion below the ecliptic plane.

Orbit Viewer applet originally written and kindly provided by Osamu Ajiki (AstroArts), and further modified by Ron Baalke (JPL).


Orbital Elements at Epoch 2451077.5 (1998-Sep-21.0) TDB
Reference: JPL 16 (heliocentric ecliptic J2000)
 Element Value Uncertainty (1-sigma)   Units 
e .7201980064628894 0.0060128  
a 2.715224666210754 0.052058 AU
q .7597252745069045 0.0017604 AU
i 2.487903455335982 0.025884 deg
node 14.26700096684825 0.031293 deg
peri 259.9411459566636 0.015366 deg
M 14.26561324039491 0.42916 deg
tp 2451012.741761473546
(1998-Jul-18.24176147)
0.08602 JED
period 1634.20705977853
4.47
46.998
0.1287
d
yr
n .2202903223590209 0.0063353 deg/d
Q 4.670724057914603 0.08955 AU
  Orbit Determination Parameters
   # obs. used (total)      47  
   data-arc span      10 days  
   first obs. used      1998-09-17  
   last obs. used      1998-09-27  
   planetary ephem.      DE405  
   SB-pert. ephem.      SB405-CPV-2  
   condition code      9  
   fit RMS      .63243  
   data source      ORB  
   producer      Otto Matic  
   solution date      2011-Sep-14 19:34:23  

Additional Information
 Earth MOID = .0109116 AU 
 T_jup = 2.918 
[ show covariance matrix ]

Ephemeris | Orbit Diagram | Orbital Elements | Physical Parameters | Close-Approach Data ]

Physical Parameter Table
Parameter Symbol Value Units Sigma Reference Notes
absolute magnitude H 20.801 mag .67077 16 autocmod 2.5a

[ show close-approach data ]
Ephemeris | Orbit Diagram | Orbital Elements | Physical Parameters | Close-Approach Data ]
ABOUT SSD CREDITS/AWARDS PRIVACY/COPYRIGHT GLOSSARY LINKS
FirstGov 2013-Jun-20 07:29 UT
(server date/time)  
NASA Home Page
Site Manager:   Donald K. Yeomans
Webmaster  Alan B. Chamberlin